TAP91HP LPPT-LPMA

Flight info

Callsign TAP91HP
Flight time 1h 42m
Altitude 35000
Route ULVOT DCT GALPA DCT RAKUN
Aircraft A320/M-SDE3FGHIJ1RWXYZ/LB1

Departure

Time 2026-05-05 17:58
Airport Lisbon Humberto Delgado Airport (LPPT)

Arrival

Time 2026-05-05 19:41
Airport Cristiano Ronaldo International Airport (LPMA)
Time Latitude Longitude Altitude Speed Heading
2026-05-05 17:24 38.77132 -9.13640 350 ft 0 kts 168°
2026-05-05 17:47 38.77144 -9.13644 357 ft 2 kts 168°
2026-05-05 17:48 38.77160 -9.13648 352 ft 2 kts 167°
2026-05-05 17:48 38.77176 -9.13653 352 ft 2 kts 164°
2026-05-05 17:48 38.77192 -9.13660 352 ft 2 kts 137°
2026-05-05 17:48 38.77197 -9.13673 361 ft 1 kts 76°
2026-05-05 17:49 38.77197 -9.13674 361 ft 0 kts 76°
2026-05-05 17:49 38.77197 -9.13673 361 ft 0 kts 77°
2026-05-05 17:52 38.77198 -9.13673 361 ft 0 kts 77°
2026-05-05 17:52 38.77205 -9.13631 350 ft 10 kts 80°
2026-05-05 17:52 38.77220 -9.13515 355 ft 14 kts 92°
2026-05-05 17:52 38.77140 -9.13462 346 ft 17 kts 166°
2026-05-05 17:53 38.77002 -9.13425 345 ft 20 kts 165°
2026-05-05 17:53 38.76868 -9.13388 343 ft 19 kts 169°
2026-05-05 17:53 38.76756 -9.13381 350 ft 8 kts 206°
2026-05-05 17:53 38.76691 -9.13431 348 ft 17 kts 213°
2026-05-05 17:54 38.76642 -9.13558 353 ft 17 kts 258°
2026-05-05 17:54 38.76618 -9.13708 348 ft 18 kts 258°
2026-05-05 17:54 38.76592 -9.13869 345 ft 19 kts 258°
2026-05-05 17:54 38.76566 -9.13998 352 ft 13 kts 244°
2026-05-05 17:55 38.76514 -9.14083 354 ft 10 kts 231°
2026-05-05 17:55 38.76496 -9.14171 351 ft 12 kts 281°
2026-05-05 17:55 38.76532 -9.14288 335 ft 11 kts 294°
2026-05-05 17:55 38.76536 -9.14300 336 ft 0 kts 294°
2026-05-05 17:56 38.76539 -9.14307 336 ft 5 kts 294°
2026-05-05 17:56 38.76580 -9.14407 333 ft 15 kts 321°
2026-05-05 17:56 38.76629 -9.14397 335 ft 0 kts 25°
2026-05-05 17:57 38.76683 -9.14366 335 ft 36 kts 23°
2026-05-05 17:58 38.77132 -9.14128 356 ft 101 kts 22°
2026-05-05 17:58 38.77953 -9.13689 364 ft 153 kts 22°
2026-05-05 17:58 38.78996 -9.13100 779 ft 164 kts 20°
2026-05-05 17:58 38.80040 -9.12492 1522 ft 166 kts 17°
2026-05-05 17:59 38.81148 -9.11899 1926 ft 184 kts 17°
2026-05-05 17:59 38.82350 -9.11139 2257 ft 205 kts 25°
2026-05-05 17:59 38.83667 -9.10142 2588 ft 230 kts 27°
2026-05-05 17:59 38.85071 -9.09060 3217 ft 244 kts 27°
2026-05-05 18:00 38.86568 -9.07922 4049 ft 249 kts 26°
2026-05-05 18:00 38.88058 -9.06795 4956 ft 252 kts 27°
2026-05-05 18:00 38.89589 -9.05656 5816 ft 257 kts 27°
2026-05-05 18:00 38.91151 -9.04508 6672 ft 260 kts 27°
2026-05-05 18:01 38.92739 -9.03346 7477 ft 264 kts 26°
2026-05-05 18:01 38.94347 -9.02162 8277 ft 268 kts 25°
2026-05-05 18:01 38.95499 -9.01599 8806 ft 268 kts
2026-05-05 18:01 38.97352 -9.01688 9583 ft 269 kts 342°
2026-05-05 18:02 38.99408 -9.03480 10356 ft 285 kts 309°
2026-05-05 18:02 39.00315 -9.05854 10581 ft 312 kts 285°
2026-05-05 18:02 39.00464 -9.08749 10745 ft 339 kts 270°
2026-05-05 18:02 39.00341 -9.11864 11019 ft 356 kts 269°
2026-05-05 18:03 39.00129 -9.13972 11410 ft 363 kts 259°
2026-05-05 18:03 38.99145 -9.16994 12068 ft 373 kts 240°
2026-05-05 18:03 38.97470 -9.19569 12782 ft 379 kts 230°
2026-05-05 18:03 38.95652 -9.22053 13490 ft 382 kts 230°
2026-05-05 18:04 38.93806 -9.24535 14146 ft 385 kts 229°
2026-05-05 18:04 38.91938 -9.27027 14771 ft 388 kts 229°
2026-05-05 18:04 38.90063 -9.29530 15401 ft 390 kts 229°
2026-05-05 18:04 38.88177 -9.32052 16031 ft 392 kts 229°
2026-05-05 18:05 38.86283 -9.34597 16654 ft 394 kts 229°
2026-05-05 18:05 38.84384 -9.37151 17268 ft 397 kts 229°
2026-05-05 18:05 38.82495 -9.39691 17863 ft 399 kts 229°
2026-05-05 18:05 38.80569 -9.42278 18449 ft 402 kts 229°
2026-05-05 18:06 38.78630 -9.44879 18953 ft 404 kts 229°
2026-05-05 18:06 38.77341 -9.46608 19276 ft 406 kts 229°
2026-05-05 18:06 38.74722 -9.50125 19920 ft 409 kts 229°
2026-05-05 18:06 38.72782 -9.52725 20379 ft 411 kts 229°
2026-05-05 18:07 38.70798 -9.55380 20824 ft 414 kts 229°
2026-05-05 18:07 38.68792 -9.58052 21266 ft 416 kts 229°
2026-05-05 18:07 38.66803 -9.60701 21690 ft 418 kts 229°
2026-05-05 18:07 38.64783 -9.63392 22114 ft 421 kts 229°
2026-05-05 18:08 38.62750 -9.66099 22524 ft 423 kts 229°
2026-05-05 18:08 38.60702 -9.68823 22917 ft 425 kts 228°
2026-05-05 18:08 38.58648 -9.71554 23302 ft 427 kts 228°
2026-05-05 18:08 38.56583 -9.74296 23673 ft 429 kts 228°
2026-05-05 18:09 38.54505 -9.77057 23981 ft 431 kts 228°
2026-05-05 18:09 38.52431 -9.79811 24078 ft 430 kts 228°
2026-05-05 18:09 38.50354 -9.82564 24100 ft 430 kts 228°
2026-05-05 18:09 38.48292 -9.85289 24179 ft 431 kts 228°
2026-05-05 18:10 38.46203 -9.88048 24532 ft 432 kts 229°
2026-05-05 18:10 38.44111 -9.90813 24876 ft 433 kts 229°
2026-05-05 18:10 38.42014 -9.93586 25210 ft 433 kts 229°
2026-05-05 18:10 38.39948 -9.96316 25522 ft 434 kts 229°
2026-05-05 18:11 38.37849 -9.99089 25840 ft 435 kts 229°
2026-05-05 18:11 38.35740 -10.01867 26139 ft 435 kts 229°
2026-05-05 18:11 38.33628 -10.04643 26431 ft 436 kts 229°
2026-05-05 18:11 38.31515 -10.07416 26708 ft 436 kts 229°
2026-05-05 18:12 38.29401 -10.10189 26980 ft 437 kts 229°
2026-05-05 18:12 38.27279 -10.12967 27241 ft 437 kts 229°
2026-05-05 18:12 38.25164 -10.15734 27600 ft 435 kts 229°
2026-05-05 18:12 38.23065 -10.18481 27983 ft 432 kts 229°
2026-05-05 18:13 38.20974 -10.21216 28371 ft 429 kts 229°
2026-05-05 18:13 38.18886 -10.23943 28767 ft 427 kts 229°
2026-05-05 18:13 38.16846 -10.26608 29145 ft 425 kts 229°
2026-05-05 18:13 38.14787 -10.29298 29539 ft 422 kts 229°
2026-05-05 18:14 38.12746 -10.31961 29948 ft 420 kts 229°
2026-05-05 18:14 38.10712 -10.34614 30330 ft 417 kts 229°
2026-05-05 18:14 38.08690 -10.37252 30654 ft 415 kts 229°
2026-05-05 18:14 38.06676 -10.39877 30952 ft 414 kts 229°
2026-05-05 18:15 38.04663 -10.42496 31251 ft 413 kts 229°
2026-05-05 18:15 38.02655 -10.45108 31541 ft 412 kts 229°
2026-05-05 18:15 38.00676 -10.47679 31835 ft 412 kts 229°
2026-05-05 18:15 37.98673 -10.50276 32129 ft 411 kts 229°
2026-05-05 18:16 37.96674 -10.52864 32413 ft 410 kts 229°
2026-05-05 18:16 37.94671 -10.55448 32698 ft 410 kts 229°
2026-05-05 18:16 37.92672 -10.58028 32983 ft 409 kts 229°
2026-05-05 18:16 37.90680 -10.60599 33271 ft 409 kts 229°
2026-05-05 18:17 37.88692 -10.63170 33545 ft 408 kts 229°
2026-05-05 18:17 37.86709 -10.65736 33825 ft 408 kts 229°
2026-05-05 18:17 37.84727 -10.68297 34100 ft 407 kts 229°
2026-05-05 18:17 37.82740 -10.70858 34354 ft 407 kts 229°
2026-05-05 18:18 37.80780 -10.73380 34568 ft 407 kts 229°
2026-05-05 18:18 37.78789 -10.75932 34784 ft 407 kts 229°
2026-05-05 18:18 37.76793 -10.78487 34996 ft 408 kts 229°
2026-05-05 18:18 37.74797 -10.81050 35199 ft 408 kts 229°
2026-05-05 18:19 37.72804 -10.83608 35397 ft 408 kts 229°
2026-05-05 18:19 37.70807 -10.86170 35587 ft 408 kts 229°
2026-05-05 18:19 37.68842 -10.88693 35770 ft 408 kts 229°
2026-05-05 18:19 37.66847 -10.91250 35954 ft 409 kts 229°
2026-05-05 18:20 37.64847 -10.93806 36137 ft 409 kts 229°
2026-05-05 18:20 37.62845 -10.96360 36313 ft 409 kts 229°
2026-05-05 18:20 37.60845 -10.98908 36484 ft 409 kts 229°
2026-05-05 18:20 37.58837 -11.01456 36642 ft 410 kts 229°
2026-05-05 18:21 37.56825 -11.04004 36803 ft 410 kts 229°
2026-05-05 18:21 37.54814 -11.06557 36962 ft 410 kts 229°
2026-05-05 18:21 37.52807 -11.09107 37109 ft 410 kts 229°
2026-05-05 18:22 37.48765 -11.14257 37139 ft 415 kts 229°
2026-05-05 18:22 37.44687 -11.19430 37140 ft 416 kts 229°
2026-05-05 18:23 37.40632 -11.24579 37136 ft 416 kts 228°
2026-05-05 18:23 37.36571 -11.29713 37138 ft 417 kts 228°
2026-05-05 18:24 37.32477 -11.34877 37135 ft 417 kts 228°
2026-05-05 18:24 37.28386 -11.40035 37135 ft 417 kts 228°
2026-05-05 18:25 37.24281 -11.45197 37135 ft 417 kts 228°
2026-05-05 18:25 37.20178 -11.50344 37134 ft 417 kts 228°
2026-05-05 18:26 37.16067 -11.55499 37137 ft 417 kts 228°
2026-05-05 18:26 37.11988 -11.60616 37138 ft 417 kts 228°
2026-05-05 18:27 37.09284 -11.63997 37138 ft 417 kts 228°
2026-05-05 18:27 37.07161 -11.66650 37139 ft 417 kts 228°
2026-05-05 18:28 37.00977 -11.74361 37142 ft 418 kts 227°
2026-05-05 18:28 36.96882 -11.79450 37146 ft 418 kts 227°
2026-05-05 18:29 36.92751 -11.84582 37147 ft 418 kts 227°
2026-05-05 18:29 36.88623 -11.89715 37147 ft 418 kts 228°
2026-05-05 18:30 36.84527 -11.94810 37147 ft 418 kts 227°
2026-05-05 18:30 36.80388 -11.99914 37145 ft 418 kts 227°
2026-05-05 18:31 36.76245 -12.05022 37145 ft 418 kts 227°
2026-05-05 18:31 36.72112 -12.10122 37146 ft 418 kts 227°
2026-05-05 18:32 36.67996 -12.15188 37151 ft 418 kts 227°
2026-05-05 18:32 36.63851 -12.20282 37149 ft 418 kts 227°
2026-05-05 18:33 36.59702 -12.25388 37151 ft 418 kts 227°
2026-05-05 18:33 36.55582 -12.30430 37151 ft 418 kts 227°
2026-05-05 18:34 36.51425 -12.35506 37150 ft 418 kts 227°
2026-05-05 18:34 36.47265 -12.40582 37151 ft 418 kts 227°
2026-05-05 18:35 36.43112 -12.45650 37149 ft 419 kts 227°
2026-05-05 18:35 36.38970 -12.50694 37149 ft 419 kts 227°
2026-05-05 18:36 36.34803 -12.55757 37152 ft 419 kts 227°
2026-05-05 18:36 36.30632 -12.60818 37151 ft 419 kts 227°
2026-05-05 18:37 36.26465 -12.65865 37150 ft 419 kts 227°
2026-05-05 18:37 36.22315 -12.70879 37151 ft 419 kts 227°
2026-05-05 18:38 36.18139 -12.75920 37149 ft 419 kts 227°
2026-05-05 18:38 36.13963 -12.80964 37148 ft 419 kts 227°
2026-05-05 18:39 36.09777 -12.85998 37148 ft 419 kts 227°
2026-05-05 18:39 36.05588 -12.91032 37148 ft 419 kts 227°
2026-05-05 18:40 36.01424 -12.96029 37150 ft 419 kts 227°
2026-05-05 18:40 35.97234 -13.01059 37150 ft 419 kts 227°
2026-05-05 18:41 35.93049 -13.06071 37148 ft 419 kts 227°
2026-05-05 18:41 35.88846 -13.11092 37151 ft 420 kts 227°
2026-05-05 18:42 35.84647 -13.16093 37152 ft 420 kts 227°
2026-05-05 18:42 35.80495 -13.21034 37151 ft 420 kts 227°
2026-05-05 18:43 35.76286 -13.26037 37153 ft 420 kts 227°
2026-05-05 18:43 35.72087 -13.31026 37151 ft 420 kts 227°
2026-05-05 18:44 35.67880 -13.36027 37150 ft 420 kts 227°
2026-05-05 18:44 35.63697 -13.40970 37151 ft 420 kts 226°
2026-05-05 18:45 35.59477 -13.45947 37147 ft 420 kts 226°
2026-05-05 18:45 35.55264 -13.50919 37149 ft 420 kts 226°
2026-05-05 18:46 35.51048 -13.55881 37152 ft 419 kts 226°
2026-05-05 18:46 35.46856 -13.60816 37151 ft 419 kts 226°
2026-05-05 18:47 35.42641 -13.65778 37151 ft 419 kts 226°
2026-05-05 18:47 35.38441 -13.70695 37151 ft 419 kts 226°
2026-05-05 18:48 35.34224 -13.75631 37150 ft 419 kts 226°
2026-05-05 18:48 35.30704 -13.79749 37148 ft 419 kts 226°
2026-05-05 18:49 35.26481 -13.84674 37143 ft 419 kts 226°
2026-05-05 18:49 35.22254 -13.89604 37146 ft 419 kts 226°
2026-05-05 18:50 35.18053 -13.94495 37149 ft 419 kts 226°
2026-05-05 18:50 35.13823 -13.99411 37152 ft 419 kts 226°
2026-05-05 18:51 35.09603 -14.04316 37148 ft 419 kts 226°
2026-05-05 18:51 35.05377 -14.09209 37150 ft 418 kts 226°
2026-05-05 18:52 35.01144 -14.14104 37145 ft 418 kts 226°
2026-05-05 18:52 34.96949 -14.18956 37151 ft 418 kts 226°
2026-05-05 18:53 34.92716 -14.23843 37148 ft 418 kts 226°
2026-05-05 18:53 34.88489 -14.28715 37148 ft 418 kts 226°
2026-05-05 18:54 34.84256 -14.33585 37146 ft 418 kts 226°
2026-05-05 18:54 34.80043 -14.38423 37143 ft 418 kts 226°
2026-05-05 18:55 34.75801 -14.43283 37149 ft 418 kts 226°
2026-05-05 18:55 34.71567 -14.48130 37145 ft 418 kts 226°
2026-05-05 18:56 34.67357 -14.52950 37144 ft 418 kts 226°
2026-05-05 18:56 34.63119 -14.57794 37137 ft 418 kts 226°
2026-05-05 18:57 34.58882 -14.62618 37141 ft 418 kts 226°
2026-05-05 18:57 34.54636 -14.67441 37137 ft 418 kts 226°
2026-05-05 18:58 34.50397 -14.72267 37137 ft 417 kts 226°
2026-05-05 18:58 34.46192 -14.77051 37138 ft 417 kts 226°
2026-05-05 18:59 34.41968 -14.81835 37136 ft 418 kts 226°
2026-05-05 18:59 34.37716 -14.86646 37136 ft 418 kts 226°
2026-05-05 19:00 34.33463 -14.91440 37136 ft 418 kts 226°
2026-05-05 19:00 34.29213 -14.96238 37138 ft 417 kts 226°
2026-05-05 19:01 34.24970 -15.01031 37135 ft 417 kts 226°
2026-05-05 19:01 34.20743 -15.05783 37134 ft 417 kts 226°
2026-05-05 19:02 34.16488 -15.10566 37134 ft 417 kts 226°
2026-05-05 19:02 34.12233 -15.15348 37135 ft 417 kts 226°
2026-05-05 19:03 34.07983 -15.20115 37136 ft 417 kts 226°
2026-05-05 19:03 34.03743 -15.24847 37136 ft 417 kts 226°
2026-05-05 19:04 33.99484 -15.29601 37133 ft 417 kts 226°
2026-05-05 19:04 33.95225 -15.34350 37134 ft 417 kts 226°
2026-05-05 19:05 33.90960 -15.39099 37133 ft 417 kts 226°
2026-05-05 19:05 33.86706 -15.43834 37126 ft 417 kts 226°
2026-05-05 19:06 33.82471 -15.48549 37134 ft 416 kts 226°
2026-05-05 19:06 33.78213 -15.53282 37130 ft 416 kts 226°
2026-05-05 19:07 33.73943 -15.58003 37136 ft 416 kts 226°
2026-05-05 19:07 33.69705 -15.62694 37135 ft 416 kts 226°
2026-05-05 19:08 33.65453 -15.67391 37152 ft 415 kts 226°
2026-05-05 19:08 33.61206 -15.72069 37149 ft 414 kts 226°
2026-05-05 19:09 33.56954 -15.76746 37143 ft 413 kts 226°
2026-05-05 19:09 33.52776 -15.81441 36240 ft 417 kts 227°
2026-05-05 19:10 33.50687 -15.83897 35203 ft 422 kts 227°
2026-05-05 19:10 33.48606 -15.86376 34226 ft 420 kts 228°
2026-05-05 19:10 33.47232 -15.88014 33182 ft 420 kts 227°
2026-05-05 19:10 33.44432 -15.91338 30836 ft 426 kts 227°
2026-05-05 19:11 33.42294 -15.93862 28796 ft 433 kts 226°
2026-05-05 19:11 33.40128 -15.96404 26777 ft 439 kts 226°
2026-05-05 19:11 33.37987 -15.98901 24899 ft 442 kts 226°
2026-05-05 19:11 33.35779 -16.01471 22992 ft 444 kts 227°
2026-05-05 19:12 33.33567 -16.04043 21241 ft 441 kts 226°
2026-05-05 19:12 33.31381 -16.06580 19718 ft 434 kts 226°
2026-05-05 19:12 33.29227 -16.09080 18313 ft 428 kts 226°
2026-05-05 19:12 33.27121 -16.11530 17327 ft 412 kts 226°
2026-05-05 19:13 33.25124 -16.13853 16782 ft 396 kts 226°
2026-05-05 19:13 33.23153 -16.16151 16106 ft 396 kts 226°
2026-05-05 19:13 33.21180 -16.18447 15432 ft 395 kts 226°
2026-05-05 19:13 33.19208 -16.20734 14786 ft 394 kts 226°
2026-05-05 19:14 33.17271 -16.22979 14163 ft 392 kts 226°
2026-05-05 19:14 33.15320 -16.25245 13494 ft 390 kts 226°
2026-05-05 19:14 33.13379 -16.27499 12887 ft 386 kts 226°
2026-05-05 19:14 33.11460 -16.29724 12272 ft 381 kts 225°
2026-05-05 19:15 33.09561 -16.31923 11670 ft 378 kts 225°
2026-05-05 19:15 33.07700 -16.34073 11416 ft 364 kts 225°
2026-05-05 19:15 33.05918 -16.36128 11290 ft 348 kts 225°
2026-05-05 19:15 33.04212 -16.38094 11173 ft 334 kts 225°
2026-05-05 19:16 33.02598 -16.39953 11035 ft 320 kts 225°
2026-05-05 19:16 33.01025 -16.41765 10922 ft 308 kts 225°
2026-05-05 19:16 32.99510 -16.43510 10754 ft 299 kts 225°
2026-05-05 19:16 32.98031 -16.45215 10607 ft 294 kts 225°
2026-05-05 19:17 32.96561 -16.46905 10536 ft 294 kts 225°
2026-05-05 19:17 32.95088 -16.48600 10423 ft 294 kts 225°
2026-05-05 19:17 32.93619 -16.50293 10295 ft 294 kts 225°
2026-05-05 19:17 32.92147 -16.51975 10158 ft 293 kts 224°
2026-05-05 19:18 32.90734 -16.53516 9793 ft 297 kts 223°
2026-05-05 19:18 32.89178 -16.55172 9345 ft 298 kts 223°
2026-05-05 19:18 32.87649 -16.56783 9199 ft 287 kts 223°
2026-05-05 19:18 32.86179 -16.58334 9063 ft 277 kts 223°
2026-05-05 19:19 32.84772 -16.59823 8807 ft 272 kts 222°
2026-05-05 19:19 32.83367 -16.61312 8320 ft 268 kts 223°
2026-05-05 19:19 32.81922 -16.62696 7721 ft 266 kts 213°
2026-05-05 19:19 32.80271 -16.63685 7129 ft 264 kts 200°
2026-05-05 19:20 32.78539 -16.64391 6517 ft 263 kts 199°
2026-05-05 19:20 32.76812 -16.65089 5907 ft 261 kts 198°
2026-05-05 19:20 32.75095 -16.65783 5297 ft 259 kts 198°
2026-05-05 19:20 32.73402 -16.66470 4741 ft 255 kts 198°
2026-05-05 19:21 32.71730 -16.67150 4271 ft 254 kts 198°
2026-05-05 19:21 32.70068 -16.67828 3863 ft 248 kts 195°
2026-05-05 19:21 32.68536 -16.68455 3801 ft 224 kts 196°
2026-05-05 19:21 32.67116 -16.69037 3777 ft 202 kts 195°
2026-05-05 19:22 32.65873 -16.69544 3672 ft 182 kts 197°
2026-05-05 19:22 32.64695 -16.70020 3603 ft 179 kts 194°
2026-05-05 19:22 32.63514 -16.70555 3454 ft 184 kts 204°
2026-05-05 19:22 32.62430 -16.71446 3037 ft 193 kts 223°
2026-05-05 19:23 32.61591 -16.72665 3003 ft 197 kts 237°
2026-05-05 19:23 32.61013 -16.74226 3019 ft 213 kts 256°
2026-05-05 19:23 32.60838 -16.75978 3011 ft 216 kts 274°
2026-05-05 19:23 32.61106 -16.77716 3014 ft 212 kts 291°
2026-05-05 19:24 32.61866 -16.79157 3014 ft 204 kts 320°
2026-05-05 19:24 32.63020 -16.80060 3013 ft 197 kts 343°
2026-05-05 19:24 32.64328 -16.80343 3014 ft 192 kts
2026-05-05 19:24 32.65677 -16.80335 3010 ft 194 kts
2026-05-05 19:25 32.67042 -16.80117 2998 ft 204 kts 22°
2026-05-05 19:25 32.68247 -16.79244 2984 ft 203 kts 45°
2026-05-05 19:25 32.69250 -16.78020 2984 ft 224 kts 46°
2026-05-05 19:25 32.70477 -16.76644 3068 ft 244 kts 43°
2026-05-05 19:26 32.71569 -16.75195 3018 ft 227 kts 56°
2026-05-05 19:26 32.72261 -16.73598 3011 ft 210 kts 70°
2026-05-05 19:26 32.72633 -16.71951 3011 ft 205 kts 80°
2026-05-05 19:26 32.72599 -16.70267 3012 ft 208 kts 103°
2026-05-05 19:27 32.71878 -16.68800 3008 ft 216 kts 133°
2026-05-05 19:27 32.70528 -16.67987 3010 ft 225 kts 167°
2026-05-05 19:27 32.68962 -16.68204 3022 ft 231 kts 196°
2026-05-05 19:27 32.67470 -16.68832 2965 ft 222 kts 196°
2026-05-05 19:28 32.66077 -16.69417 2881 ft 202 kts 195°
2026-05-05 19:28 32.64818 -16.69946 2730 ft 181 kts 195°
2026-05-05 19:28 32.63698 -16.70448 2562 ft 164 kts 201°
2026-05-05 19:28 32.62736 -16.71152 2230 ft 163 kts 215°
2026-05-05 19:29 32.61938 -16.72092 1878 ft 162 kts 231°
2026-05-05 19:29 32.61338 -16.73228 1487 ft 164 kts 245°
2026-05-05 19:29 32.60971 -16.74493 1265 ft 159 kts 261°
2026-05-05 19:29 32.60847 -16.75796 1273 ft 158 kts 275°
2026-05-05 19:30 32.60965 -16.77091 1282 ft 157 kts 287°
2026-05-05 19:30 32.61333 -16.78300 1271 ft 155 kts 306°
2026-05-05 19:30 32.61989 -16.79292 1273 ft 151 kts 324°
2026-05-05 19:30 32.62538 -16.79782 1278 ft 147 kts 336°
2026-05-05 19:31 32.63452 -16.80232 1273 ft 140 kts 354°
2026-05-05 19:31 32.64412 -16.80345 1252 ft 137 kts
2026-05-05 19:31 32.65367 -16.80337 1029 ft 136 kts
2026-05-05 19:31 32.66309 -16.80314 828 ft 135 kts
2026-05-05 19:32 32.67213 -16.80040 635 ft 135 kts 22°
2026-05-05 19:32 32.68023 -16.79496 414 ft 134 kts 35°
2026-05-05 19:32 32.68693 -16.78704 271 ft 140 kts 41°
2026-05-05 19:32 32.69557 -16.77722 183 ft 113 kts 43°
2026-05-05 19:33 32.69908 -16.77266 274 ft 118 kts 43°
2026-05-05 19:33 32.70568 -16.76549 753 ft 134 kts 42°
2026-05-05 19:33 32.71242 -16.75697 1321 ft 149 kts 50°
2026-05-05 19:33 32.71855 -16.74605 1744 ft 167 kts 61°
2026-05-05 19:34 32.72348 -16.73280 2059 ft 190 kts 71°
2026-05-05 19:34 32.72659 -16.71700 2612 ft 201 kts 80°
2026-05-05 19:34 32.72752 -16.70003 2959 ft 207 kts 89°
2026-05-05 19:35 32.71574 -16.66990 3012 ft 214 kts 142°
2026-05-05 19:35 32.70154 -16.66411 3006 ft 224 kts 175°
2026-05-05 19:35 32.68667 -16.66849 2885 ft 223 kts 208°
2026-05-05 19:35 32.67413 -16.67867 2803 ft 211 kts 211°
2026-05-05 19:36 32.66215 -16.68781 2724 ft 197 kts 209°
2026-05-05 19:36 32.65092 -16.69609 2659 ft 183 kts 207°
2026-05-05 19:36 32.64003 -16.70253 2511 ft 169 kts 202°
2026-05-05 19:36 32.62995 -16.70934 2468 ft 165 kts 212°
2026-05-05 19:37 32.62131 -16.71832 2435 ft 167 kts 227°
2026-05-05 19:37 32.61457 -16.72951 2399 ft 167 kts 241°
2026-05-05 19:37 32.61023 -16.74226 2361 ft 166 kts 257°
2026-05-05 19:37 32.60853 -16.75547 2316 ft 164 kts 271°
2026-05-05 19:38 32.60934 -16.76904 2123 ft 162 kts 285°
2026-05-05 19:38 32.61270 -16.78154 1973 ft 158 kts 302°
2026-05-05 19:38 32.61900 -16.79194 1737 ft 150 kts 322°
2026-05-05 19:38 32.62715 -16.79900 1536 ft 145 kts 341°
2026-05-05 19:39 32.63648 -16.80277 1334 ft 141 kts 357°
2026-05-05 19:39 32.64600 -16.80338 1150 ft 136 kts
2026-05-05 19:39 32.65552 -16.80335 963 ft 135 kts
2026-05-05 19:39 32.66488 -16.80286 784 ft 134 kts 13°
2026-05-05 19:40 32.67373 -16.79957 622 ft 134 kts 25°
2026-05-05 19:40 32.68149 -16.79346 417 ft 135 kts 38°
2026-05-05 19:40 32.68830 -16.78555 239 ft 137 kts 41°
2026-05-05 19:40 32.69446 -16.77842 166 ft 97 kts 44°
2026-05-05 19:41 32.69738 -16.77502 177 ft 33 kts 43°
2026-05-05 19:41 32.69884 -16.77337 178 ft 25 kts 42°
2026-05-05 19:41 32.69948 -16.77192 179 ft 12 kts 103°
2026-05-05 19:41 32.69923 -16.77176 177 ft 4 kts 179°
2026-05-05 19:42 32.69914 -16.77176 178 ft 4 kts 181°
2026-05-05 19:42 32.69756 -16.77271 169 ft 33 kts 240°
2026-05-05 19:42 32.69652 -16.77415 172 ft 17 kts 222°
2026-05-05 19:42 32.69586 -16.77455 174 ft 6 kts 167°
2026-05-05 19:43 32.69565 -16.77433 176 ft 12 kts 136°
2026-05-05 19:43 32.69541 -16.77405 176 ft 0 kts 136°